Stündliche Wetter Otrada

Heute, 14 April, Mittwoch

Zeit Temperatur Niederschläge Wind Luftdruck Luftfeuchtigkeit
00:00 +11°C° 0 mm 4 m/S 757 mmHg 59%
01:00 +11°C° 0 mm 4 m/S 757 mmHg 61%
02:00 +10°C° 0 mm 4 m/S 757 mmHg 63%
03:00 +10°C° 0 mm 3 m/S 757 mmHg 66%
04:00 +9°C° 0 mm 3 m/S 757 mmHg 68%
05:00 +9°C° 0 mm 3 m/S 757 mmHg 70%
06:00 +8°C° 0 mm 3 m/S 756 mmHg 72%
07:00 +10°C° 0 mm 3 m/S 756 mmHg 65%
08:00 +12°C° 0 mm 4 m/S 756 mmHg 58%
09:00 +14°C° 0 mm 4 m/S 756 mmHg 51%
10:00 +15°C° 0 mm 4 m/S 756 mmHg 45%
11:00 +18°C° 0 mm 4 m/S 756 mmHg 40%
12:00 +19°C° 0 mm 5 m/S 755 mmHg 35%
13:00 +19°C° 0 mm 5 m/S 755 mmHg 32%
14:00 +20°C° 0 mm 5 m/S 754 mmHg 30%
15:00 +20°C° 0 mm 5 m/S 754 mmHg 27%
16:00 +20°C° 0 mm 4 m/S 754 mmHg 31%
17:00 +19°C° 0 mm 3 m/S 754 mmHg 35%
18:00 +18°C° 0 mm 3 m/S 753 mmHg 39%
19:00 +16°C° 0 mm 3 m/S 753 mmHg 44%
20:00 +14°C° 0 mm 3 m/S 753 mmHg 48%
21:00 +12°C° 0 mm 3 m/S 754 mmHg 52%
22:00 +12°C° 0 mm 3 m/S 753 mmHg 54%
23:00 +11°C° 0 mm 3 m/S 753 mmHg 56%

Morgen, 15 April, Donnerstag

Zeit Temperatur Niederschläge Wind Luftdruck Luftfeuchtigkeit
00:00 +10°C° 0 mm 3 m/S 753 mmHg 58%
01:00 +10°C° 0 mm 3 m/S 753 mmHg 60%
02:00 +9°C° 0 mm 2 m/S 753 mmHg 62%
03:00 +9°C° 0 mm 2 m/S 753 mmHg 64%
04:00 +9°C° 0 mm 2 m/S 752 mmHg 66%
05:00 +8°C° 0 mm 2 m/S 752 mmHg 68%
06:00 +8°C° 0 mm 2 m/S 752 mmHg 70%
07:00 +10°C° 0 mm 3 m/S 752 mmHg 65%
08:00 +12°C° 0 mm 3 m/S 752 mmHg 59%
09:00 +14°C° 0 mm 3 m/S 752 mmHg 53%
10:00 +16°C° 0 mm 3 m/S 752 mmHg 49%
11:00 +18°C° 0 mm 3 m/S 752 mmHg 44%
12:00 +20°C° 0 mm 3 m/S 751 mmHg 40%
13:00 +20°C° 0 mm 4 m/S 751 mmHg 38%
14:00 +21°C° 0 mm 4 m/S 751 mmHg 36%
15:00 +21°C° 0 mm 4 m/S 751 mmHg 34%
16:00 +20°C° 0 mm 4 m/S 751 mmHg 37%
17:00 +20°C° 0 mm 4 m/S 751 mmHg 41%
18:00 +19°C° 0 mm 4 m/S 751 mmHg 45%
19:00 +17°C° 0 mm 4 m/S 751 mmHg 50%
20:00 +15°C° 0 mm 4 m/S 751 mmHg 54%
21:00 +14°C° 0 mm 4 m/S 751 mmHg 59%
22:00 +13°C° 0 mm 4 m/S 751 mmHg 62%
23:00 +12°C° 0 mm 3 m/S 751 mmHg 64%

übermorgen, 16 April, Freitag

Zeit Temperatur Niederschläge Wind Luftdruck Luftfeuchtigkeit
00:00 +11°C° 0 mm 3 m/S 751 mmHg 67%
01:00 +11°C° 0 mm 3 m/S 752 mmHg 69%
02:00 +10°C° 0 mm 3 m/S 752 mmHg 70%
03:00 +10°C° 0 mm 3 m/S 752 mmHg 72%
04:00 +10°C° 0.1 mm 4 m/S 752 mmHg 75%
05:00 +8°C° 0.1 mm 4 m/S 752 mmHg 79%
06:00 +8°C° 0.1 mm 5 m/S 752 mmHg 83%
07:00 +9°C° 0.2 mm 5 m/S 753 mmHg 81%
08:00 +10°C° 0.2 mm 6 m/S 753 mmHg 80%
09:00 +11°C° 0.2 mm 6 m/S 753 mmHg 78%
10:00 +13°C° 0.1 mm 6 m/S 754 mmHg 73%
11:00 +14°C° 0.1 mm 6 m/S 754 mmHg 68%
12:00 +15°C° 0.1 mm 6 m/S 754 mmHg 63%
13:00 +16°C° 0 mm 6 m/S 754 mmHg 60%
14:00 +16°C° 0 mm 6 m/S 754 mmHg 58%
15:00 +17°C° 0 mm 6 m/S 754 mmHg 55%
16:00 +16°C° 0.2 mm 6 m/S 754 mmHg 59%
17:00 +15°C° 0.2 mm 6 m/S 754 mmHg 62%
18:00 +14°C° 0.2 mm 6 m/S 754 mmHg 66%
19:00 +13°C° 0.3 mm 6 m/S 754 mmHg 71%
20:00 +11°C° 0.3 mm 6 m/S 755 mmHg 76%
21:00 +9°C° 0.3 mm 6 m/S 755 mmHg 80%
22:00 +9°C° 0 mm 6 m/S 755 mmHg 81%
23:00 +8°C° 0 mm 6 m/S 755 mmHg 83%

17 April, Samstag

Zeit Temperatur Niederschläge Wind Luftdruck Luftfeuchtigkeit
00:00 +8°C° 0 mm 6 m/S 755 mmHg 84%
01:00 +7°C° 0 mm 6 m/S 755 mmHg 84%
02:00 +7°C° 0 mm 6 m/S 755 mmHg 84%
03:00 +7°C° 0 mm 6 m/S 755 mmHg 84%
04:00 +7°C° 0.1 mm 6 m/S 756 mmHg 84%
05:00 +5°C° 0.1 mm 6 m/S 756 mmHg 83%
06:00 +5°C° 0.1 mm 6 m/S 756 mmHg 83%
07:00 +7°C° 0 mm 6 m/S 756 mmHg 78%
08:00 +7°C° 0 mm 6 m/S 757 mmHg 73%
09:00 +8°C° 0 mm 7 m/S 757 mmHg 69%
10:00 +10°C° 0 mm 7 m/S 757 mmHg 65%
11:00 +11°C° 0 mm 7 m/S 757 mmHg 60%
12:00 +14°C° 0 mm 7 m/S 757 mmHg 56%
13:00 +14°C° 0 mm 7 m/S 757 mmHg 54%
14:00 +15°C° 0 mm 7 m/S 757 mmHg 51%
15:00 +15°C° 0 mm 7 m/S 757 mmHg 49%
16:00 +15°C° 0 mm 7 m/S 757 mmHg 50%
17:00 +14°C° 0 mm 7 m/S 757 mmHg 51%
18:00 +12°C° 0 mm 7 m/S 757 mmHg 52%
19:00 +11°C° 0 mm 7 m/S 757 mmHg 51%
20:00 +10°C° 0 mm 7 m/S 757 mmHg 50%
21:00 +9°C° 0 mm 6 m/S 757 mmHg 50%
22:00 +8°C° 0 mm 6 m/S 758 mmHg 51%
23:00 +7°C° 0 mm 6 m/S 758 mmHg 53%

18 April, Sonntag

Zeit Temperatur Niederschläge Wind Luftdruck Luftfeuchtigkeit
00:00 +6°C° 0 mm 5 m/S 758 mmHg 55%
01:00 +6°C° 0 mm 5 m/S 758 mmHg 56%
02:00 +6°C° 0 mm 5 m/S 758 mmHg 57%
03:00 +5°C° 0 mm 5 m/S 759 mmHg 58%
04:00 +5°C° 0 mm 5 m/S 759 mmHg 60%
05:00 +5°C° 0 mm 5 m/S 759 mmHg 61%
06:00 +3°C° 0 mm 5 m/S 759 mmHg 63%
07:00 +6°C° 0 mm 5 m/S 759 mmHg 58%
08:00 +7°C° 0 mm 6 m/S 759 mmHg 54%
09:00 +8°C° 0 mm 6 m/S 759 mmHg 49%
10:00 +10°C° 0 mm 6 m/S 759 mmHg 45%
11:00 +11°C° 0 mm 6 m/S 759 mmHg 41%
12:00 +13°C° 0 mm 6 m/S 759 mmHg 37%
13:00 +13°C° 0 mm 6 m/S 759 mmHg 36%
14:00 +14°C° 0 mm 5 m/S 759 mmHg 35%
15:00 +14°C° 0 mm 5 m/S 759 mmHg 34%
16:00 +14°C° 0 mm 5 m/S 759 mmHg 38%
17:00 +13°C° 0 mm 5 m/S 759 mmHg 41%
18:00 +13°C° 0 mm 5 m/S 760 mmHg 45%
19:00 +12°C° 0 mm 5 m/S 760 mmHg 49%
20:00 +9°C° 0 mm 5 m/S 760 mmHg 54%
21:00 +8°C° 0 mm 5 m/S 761 mmHg 58%
22:00 +8°C° 0 mm 4 m/S 761 mmHg 61%
23:00 +7°C° 0 mm 4 m/S 761 mmHg 63%

19 April, Montag

Zeit Temperatur Niederschläge Wind Luftdruck Luftfeuchtigkeit
00:00 +7°C° 0 mm 3 m/S 761 mmHg 66%
01:00 +7°C° 0 mm 3 m/S 761 mmHg 69%
02:00 +5°C° 0 mm 3 m/S 761 mmHg 72%
03:00 +4°C° 0 mm 3 m/S 762 mmHg 75%
04:00 +4°C° 0 mm 3 m/S 762 mmHg 77%
05:00 +4°C° 0 mm 3 m/S 762 mmHg 78%
06:00 +4°C° 0 mm 3 m/S 762 mmHg 79%
07:00 +5°C° 0 mm 4 m/S 763 mmHg 72%
08:00 +7°C° 0 mm 4 m/S 763 mmHg 64%
09:00 +9°C° 0 mm 5 m/S 763 mmHg 57%
10:00 +9°C° 0 mm 5 m/S 763 mmHg 53%
11:00 +10°C° 0 mm 5 m/S 763 mmHg 48%
12:00 +12°C° 0 mm 5 m/S 763 mmHg 44%
13:00 +13°C° 0 mm 5 m/S 763 mmHg 43%
14:00 +13°C° 0 mm 4 m/S 763 mmHg 42%
15:00 +13°C° 0 mm 4 m/S 763 mmHg 40%
16:00 +12°C° 0 mm 4 m/S 763 mmHg 42%
17:00 +12°C° 0 mm 4 m/S 763 mmHg 43%
18:00 +12°C° 0 mm 4 m/S 763 mmHg 44%
19:00 +10°C° 0 mm 4 m/S 764 mmHg 46%
20:00 +8°C° 0 mm 4 m/S 764 mmHg 48%
21:00 +6°C° 0 mm 4 m/S 764 mmHg 50%
22:00 +5°C° 0 mm 4 m/S 764 mmHg 51%
23:00 +4°C° 0 mm 3 m/S 765 mmHg 52%
Mehr zeigen

Wir brauchen deine Erlaubnis

Meteoprog und unser Service Anbieter werden persönliche Daten aufbewahren, so wie Cookies, Geräte Bezeichnung oder ähnliche Technologien von deinem Gerät und Prozess, so wie Persönliche Daten Inhalte und Werbungen, genauso wie social Media und den Verkehr zu analysieren.

  • Aufbewahrung und/oder Zugang zu deiner Geräte Informationen.

    Cookies, Geräte Bezeichnung oder andere Informationen, können aufbewahrt oder Zugang zu deinem Gerät erhalten, für den Grund, der oben angegeben wird.

  • Personalisierte Werbung und Inhalte, Messungen, Einblick in das Publikum und Produkt Entwicklung.

    Werbungen und Inhalte können personalisiert werden, basierend auf ein Profil. Mehr Daten können besser personalisierte Werbungen und Inhalte hinzufügen. Werbung und Inhalte können gezeigt und gemessen werden. Einblicke über das Publikum, welche die Werbung gesehen haben und den Inhalt, können abgeleitet werden. So wie Daten können genutzt werden, um es zu verbessern oder die Benutzer Erfahrung zu verbessern das System und die Software.

Wenn du “Ich stimme zu” klickst, erlaubst du uns, die Cookies zu benutzen die Geräte Bezeichnung, den Web oder ähnliche Technologien zu benutzen. Deine Settings, können in deinem Gerät bei deinem Browser geändert werden.

Für den bestimmten Zweck, berechtigten Interessen beruhen darauf, mehr als auf den Inhalt. Du kannst mehr darüber in unseren Privaten und Cookie Politik lesen.